Weather History for Tyler, TX

Change the Weather History Date:

Wednesday, May 29, 2013

  Actual Average Record
Temperature  
Mean Temperature 80 °F 76 °F  
Max Temperature 86 °F 85 °F 98 °F (1998)
Min Temperature 73 °F 67 °F 49 °F (1947)
Degree Days  
Heating Degree Days 0 0  
Month to date heating degree days 43 6  
Since 1 July heating degree days 2013 2268  
Cooling Degree Days 15 11  
Month to date cooling degree days 245 234  
Year to date cooling degree days 361 346  
Growing Degree Days 28 (Base 50)    
Moisture  
Dew Point 67 °F    
Average Humidity 69    
Maximum Humidity 79    
Minimum Humidity 58    
Precipitation  
Precipitation 0.00 in 0.17 in 2.65 in (1914)
Month to date precipitation 3.48 4.40  
Year to date precipitation 14.04 18.56  
Snow  
Snow 0.00 in - - ()
Month to date snowfall 0.0  
Since 1 July snowfall 1.0  
Snow Depth 0.00 in    
Sea Level Pressure  
Sea Level Pressure 29.85 in    
Wind  
Wind Speed 15 mph (SSE)    
Max Wind Speed 23 mph    
Max Gust Speed 30 mph    
Visibility 10 miles    
Events      
T = Trace of Precipitation, MM = Missing Value Source: NWS Daily Summary

Daily Weather History Graph

Daily Weather History Graph

Search for Another Location

Airport:

Trip Planner

Search our weather history database for the weather conditions in past years. The results will help you decide how hot, cold, wet, or windy it might be!

Date:

Astronomy

May. 29, 2013 Rise Set
Actual Time 6:16 AM CDT 8:22 PM CDT
Civil Twilight 5:48 AM CDT 8:50 PM CDT
Nautical Twilight 5:14 AM CDT 9:23 PM CDT
Astronomical Twilight 4:38 AM CDT 10:00 PM CDT
Moon No Moon Rise 11:07 AM CDT (5/29)
Length of Visible Light 15h 01m
Length of Day
14h 05m
Waning Gibbous, 73% of the Moon is Illuminated
May 29
Waning Gibbous
May 31
Last Quarter
Jun 8
New
Jun 16
First Quarter
Jun 23
Full

Hourly Weather History & Observations

Time (CDT) Temp. Heat Index Dew Point Humidity Pressure Visibility Wind Dir Wind Speed Gust Speed Precip Events Conditions
12:53 AM 75.0 °F - 66.9 °F 76% 29.87 in 10.0 mi South 16.1 mph - N/A   Clear
1:53 AM 73.9 °F - 66.9 °F 79% 29.85 in 10.0 mi SSE 13.8 mph 23.0 mph N/A   Clear
2:23 AM 73.4 °F - 66.2 °F 78% 29.85 in 10.0 mi SSE 16.1 mph 25.3 mph N/A   Mostly Cloudy
2:53 AM 73.9 °F - 66.9 °F 79% 29.83 in 10.0 mi South 16.1 mph 23.0 mph N/A   Mostly Cloudy
3:53 AM 73.9 °F - 66.9 °F 79% 29.86 in 10.0 mi South 11.5 mph 19.6 mph N/A   Overcast
4:53 AM 73.9 °F - 66.9 °F 79% 29.88 in 10.0 mi South 11.5 mph - N/A   Mostly Cloudy
5:33 AM 73.4 °F - 66.2 °F 78% 29.88 in 10.0 mi SSE 11.5 mph - N/A   Scattered Clouds
5:53 AM 73.0 °F - 66.9 °F 81% 29.86 in 10.0 mi SSE 10.4 mph - N/A   Partly Cloudy
6:12 AM 73.4 °F - 66.2 °F 78% 29.88 in 10.0 mi SSE 8.1 mph - N/A   Mostly Cloudy
6:48 AM 73.4 °F - 66.2 °F 78% 29.88 in 10.0 mi SSE 10.4 mph - N/A   Scattered Clouds
6:53 AM 73.0 °F - 66.9 °F 81% 29.86 in 10.0 mi SSE 10.4 mph - N/A   Partly Cloudy
7:53 AM 75.0 °F - 68.0 °F 79% 29.86 in 10.0 mi SSE 10.4 mph - N/A   Scattered Clouds
8:08 AM 75.2 °F - 68.0 °F 78% 29.89 in 10.0 mi SSE 13.8 mph - N/A   Mostly Cloudy
8:53 AM 77.0 °F - 68.0 °F 74% 29.87 in 10.0 mi South 13.8 mph 21.9 mph N/A   Overcast
9:53 AM 79.0 °F - 66.9 °F 66% 29.89 in 10.0 mi SSE 19.6 mph 24.2 mph N/A   Mostly Cloudy
10:12 AM 78.8 °F - 66.2 °F 65% 29.90 in 10.0 mi SE 17.3 mph - N/A   Scattered Clouds
10:53 AM 81.0 °F 83.3 °F 66.9 °F 62% 29.88 in 10.0 mi SSE 19.6 mph 27.6 mph N/A   Mostly Cloudy
11:53 AM 82.0 °F 84.1 °F 66.0 °F 58% 29.89 in 10.0 mi SSE 19.6 mph 26.5 mph N/A   Mostly Cloudy
12:53 PM 82.9 °F 85.4 °F 66.9 °F 58% 29.87 in 10.0 mi South 13.8 mph 23.0 mph N/A   Mostly Cloudy
1:53 PM 82.9 °F 85.4 °F 66.9 °F 58% 29.86 in 10.0 mi South 18.4 mph 29.9 mph N/A   Mostly Cloudy
2:53 PM 84.9 °F 88.2 °F 68.0 °F 57% 29.83 in 10.0 mi SE 11.5 mph 21.9 mph N/A   Mostly Cloudy
3:53 PM 84.9 °F 88.2 °F 68.0 °F 57% 29.82 in 10.0 mi SSE 13.8 mph 25.3 mph N/A   Mostly Cloudy
4:53 PM 84.9 °F 88.2 °F 68.0 °F 57% 29.79 in 10.0 mi SE 18.4 mph 27.6 mph N/A   Partly Cloudy
5:53 PM 82.0 °F 84.5 °F 66.9 °F 60% 29.78 in 10.0 mi SE 18.4 mph 25.3 mph N/A   Clear
6:53 PM 80.1 °F 82.7 °F 68.0 °F 67% 29.78 in 10.0 mi SE 11.5 mph - N/A   Clear
7:53 PM 80.1 °F 82.3 °F 66.9 °F 64% 29.80 in 10.0 mi SSE 13.8 mph - N/A   Clear
8:53 PM 78.1 °F - 66.9 °F 68% 29.81 in 10.0 mi SSE 13.8 mph - N/A   Clear
9:53 PM 77.0 °F - 66.9 °F 71% 29.81 in 10.0 mi SSE 15.0 mph - N/A   Clear
10:53 PM 77.0 °F - 66.9 °F 71% 29.81 in 10.0 mi SSE 19.6 mph 28.8 mph N/A   Clear
11:53 PM 75.9 °F - 68.0 °F 76% 29.83 in 10.0 mi South 13.8 mph 23.0 mph N/A   Clear